TimeEST,TemperatureF,Dew PointF,Humidity,Sea Level PressureIn,VisibilityMPH,Wind Direction,Wind SpeedMPH,Gust SpeedMPH,PrecipitationIn,Events,Conditions,WindDirDegrees,DateUTC
12:54 AM,28.0,26.1,92,29.93,10.0,Calm,Calm,-,N/A,,Clear,0,2013-11-08 05:54:00
1:54 AM,30.0,27.0,88,29.94,10.0,SSW,4.6,-,N/A,,Mostly Cloudy,200,2013-11-08 06:54:00
2:54 AM,36.0,28.9,76,29.94,10.0,West,6.9,-,N/A,,Clear,260,2013-11-08 07:54:00
3:54 AM,36.0,28.0,73,29.94,10.0,WSW,6.9,-,N/A,,Clear,250,2013-11-08 08:54:00
4:54 AM,33.1,28.0,82,29.96,10.0,SW,5.8,-,N/A,,Partly Cloudy,230,2013-11-08 09:54:00
5:54 AM,34.0,28.0,79,29.97,10.0,SW,3.5,-,N/A,,Partly Cloudy,220,2013-11-08 10:54:00
6:54 AM,35.1,28.0,76,29.99,10.0,WSW,8.1,-,N/A,,Scattered Clouds,250,2013-11-08 11:54:00
7:54 AM,39.0,28.9,67,30.01,10.0,West,10.4,-,N/A,,Clear,260,2013-11-08 12:54:00
8:54 AM,42.1,28.9,60,30.02,10.0,WNW,15.0,21.9,N/A,,Clear,290,2013-11-08 13:54:00
9:54 AM,44.1,28.0,53,30.02,10.0,WNW,17.3,24.2,N/A,,Clear,290,2013-11-08 14:54:00
10:54 AM,46.0,28.0,50,30.02,10.0,NW,13.8,18.4,N/A,,Mostly Cloudy,320,2013-11-08 15:54:00
11:54 AM,44.1,24.1,45,30.02,10.0,NW,16.1,27.6,N/A,,Mostly Cloudy,310,2013-11-08 16:54:00
12:54 PM,46.0,26.1,46,30.02,10.0,WNW,12.7,26.5,N/A,,Overcast,300,2013-11-08 17:54:00
1:54 PM,44.1,27.0,51,30.03,10.0,NNW,11.5,-,0.00,Rain,Light Rain,330,2013-11-08 18:54:00
2:54 PM,44.1,26.1,49,30.05,10.0,NW,13.8,20.7,0.00,,Overcast,310,2013-11-08 19:54:00
3:54 PM,43.0,27.0,53,30.08,10.0,West,8.1,-,N/A,,Scattered Clouds,270,2013-11-08 20:54:00
4:54 PM,42.1,25.0,51,30.10,10.0,WNW,12.7,19.6,N/A,,Mostly Cloudy,300,2013-11-08 21:54:00
5:54 PM,41.0,25.0,53,30.12,10.0,West,6.9,18.4,N/A,,Mostly Cloudy,280,2013-11-08 22:54:00
6:54 PM,39.0,24.1,55,30.15,10.0,West,4.6,-,N/A,,Clear,280,2013-11-08 23:54:00
7:54 PM,37.9,24.1,57,30.15,10.0,West,5.8,-,N/A,,Clear,270,2013-11-09 00:54:00
8:54 PM,37.0,24.1,59,30.17,10.0,West,4.6,-,N/A,,Clear,270,2013-11-09 01:54:00
9:54 PM,37.0,23.0,57,30.17,10.0,WSW,5.8,-,N/A,,Mostly Cloudy,250,2013-11-09 02:54:00
10:54 PM,37.0,23.0,57,30.19,10.0,West,3.5,-,N/A,,Mostly Cloudy,260,2013-11-09 03:54:00
11:54 PM,33.1,24.1,70,30.20,10.0,SW,6.9,-,N/A,,Clear,220,2013-11-09 04:54:00